Location: ????????
(60.5616°N, 46.8254°E)
Time: 19:38:41
(UTC+00:00)

Cosmos 1459 Rocket - Pass Details

Date: 18 February 2020
Orbit: 938 x 999 km, 83.0° (Epoch: 05 April)

Event Time Altitude Azimuth Distance (km) Brightness Sun altitude
Rises 15:41:59 0° 196° (SSW) 3,593 7.2 -14.5°
Reaches altitude 10° 15:44:27 10° 197° (SSW) 2,652 6.5 -14.8°
Maximum altitude 15:50:31 79° 285° (WNW) 964 4.1 -15.5°
Drops below altitude 10° 15:56:39 10° 13° (NNE) 2,680 6.2 -16.3°
Sets 15:59:10 0° 15° (NNE) 3,635 6.9 -16.6°
